Weather History for Hugo, OK

Change the Weather History Date:

Wednesday, February 20, 2013

  Actual Average Record
Temperature  
Mean Temperature 38 °F -  
Max Temperature 44 °F 63 °F 76 °F (2014)
Min Temperature 33 °F 37 °F 33 °F (2013)
Degree Days  
Heating Degree Days 26    
Moisture  
Dew Point 32 °F    
Average Humidity 81    
Maximum Humidity 95    
Minimum Humidity 46    
Precipitation  
Precipitation 0.00 in - - ()
Sea Level Pressure  
Sea Level Pressure 30.12 in    
Wind  
Wind Speed 9 mph (East)    
Max Wind Speed 22 mph    
Max Gust Speed 32 mph    
Visibility 9 miles    
Events Rain , Snow    
Averages and records for this station are not official NWS values.
T = Trace of Precipitation, MM = Missing Value Source: NWS Daily Summary

Daily Weather History Graph

Daily Weather History Graph

Search for Another Location

Airport:

Trip Planner

Search our weather history database for the weather conditions in past years. The results will help you decide how hot, cold, wet, or windy it might be!

Date:

Astronomy

Feb. 20, 2013 Rise Set
Actual Time 7:01 AM CST 6:10 PM CST
Civil Twilight 6:35 AM CST 6:36 PM CST
Nautical Twilight 6:06 AM CST 7:05 PM CST
Astronomical Twilight 5:37 AM CST 7:34 PM CST
Moon 1:41 PM CST (2/20) 3:14 AM CST (2/20)
Length of Visible Light 12h 00m
Length of Day
11h 09m
Waxing Gibbous, 76% of the Moon is Illuminated
Feb 20
Waxing Gibbous
Feb 25
Full
Mar 4
Last Quarter
Mar 11
New
Mar 19
First Quarter

Hourly Weather History & Observations

Time (CST) Temp. Windchill Dew Point Humidity Pressure Visibility Wind Dir Wind Speed Gust Speed Precip Events Conditions
12:15 AM 43.2 °F - 26.8 °F 52% 30.23 in 10.0 mi Calm Calm - N/A   Clear
12:35 AM 43.2 °F 40.5 °F 26.2 °F 51% 30.23 in 10.0 mi East 4.6 mph - N/A   Mostly Cloudy
12:55 AM 43.3 °F 40.7 °F 27.0 °F 52% 30.23 in 10.0 mi ENE 4.6 mph - N/A   Overcast
1:15 AM 43.5 °F 40.1 °F 26.1 °F 50% 30.22 in 10.0 mi East 5.8 mph - N/A   Overcast
1:35 AM 43.7 °F 40.3 °F 25.9 °F 50% 30.21 in 10.0 mi East 5.8 mph - N/A   Overcast
1:55 AM 43.7 °F 40.3 °F 26.1 °F 50% 30.21 in 10.0 mi East 5.8 mph - N/A   Overcast
2:15 AM 44.1 °F 40.8 °F 25.7 °F 49% 30.21 in 10.0 mi ESE 5.8 mph - N/A   Overcast
2:35 AM 43.9 °F 39.9 °F 25.2 °F 48% 30.21 in 10.0 mi ESE 6.9 mph - N/A   Overcast
2:55 AM 44.1 °F 39.5 °F 24.4 °F 46% 30.22 in 10.0 mi SSE 8.1 mph - N/A   Overcast
3:15 AM 43.7 °F 39.1 °F 25.9 °F 50% 30.22 in 10.0 mi SSE 8.1 mph - N/A   Light Drizzle
3:35 AM 42.3 °F 37.3 °F 29.5 °F 61% 30.23 in 10.0 mi SSE 8.1 mph - N/A Rain Light Rain
3:55 AM 41.0 °F 35.8 °F 32.4 °F 71% 30.23 in 10.0 mi SSE 8.1 mph - N/A Rain Light Rain
4:15 AM 40.3 °F 36.3 °F 33.6 °F 77% 30.22 in 10.0 mi SE 5.8 mph - N/A Rain Light Rain
4:35 AM 40.1 °F 34.1 °F 34.3 °F 80% 30.23 in 7.0 mi SE 9.2 mph - N/A Rain Rain
4:55 AM 40.3 °F - 34.7 °F 80% 30.24 in 10.0 mi Calm Calm - N/A Rain Light Rain
5:15 AM 39.6 °F 33.0 °F 34.7 °F 83% 30.23 in 7.0 mi East 10.4 mph - N/A Rain Rain
5:35 AM 38.5 °F 31.6 °F 34.9 °F 87% 30.19 in 10.0 mi ENE 10.4 mph - N/A Rain Light Rain
6:15 AM 38.5 °F 29.9 °F 36.0 °F 91% 30.15 in 5.0 mi East 15.0 mph 20.7 mph N/A Rain Light Rain
6:35 AM 38.3 °F 33.9 °F 36.1 °F 92% 30.15 in 10.0 mi East 5.8 mph - N/A Rain Light Rain
6:55 AM 38.3 °F 32.5 °F 36.3 °F 93% 30.17 in 10.0 mi East 8.1 mph - N/A Rain Light Rain
7:15 AM 38.3 °F 32.5 °F 36.5 °F 93% 30.18 in 10.0 mi East 8.1 mph - N/A Rain Light Rain
8:15 AM 38.3 °F 34.8 °F 36.5 °F 93% 30.24 in 4.0 mi North 4.6 mph - N/A Rain Heavy Rain
8:35 AM 38.1 °F 32.9 °F 36.3 °F 93% 30.24 in 2.5 mi NNE 6.9 mph - N/A Rain Heavy Rain
9:15 AM 36.9 °F 28.7 °F 35.6 °F 95% 30.24 in 5.0 mi ESE 12.7 mph 17.3 mph N/A Rain Light Rain
9:35 AM 35.8 °F 27.8 °F 34.0 °F 93% 30.24 in 7.0 mi East 11.5 mph 17.3 mph N/A Rain Light Rain
9:55 AM 35.4 °F 27.3 °F 33.8 °F 94% 30.21 in 7.0 mi East 11.5 mph 18.4 mph N/A Rain Light Rain
10:15 AM 35.8 °F 30.9 °F 34.0 °F 93% 30.24 in 10.0 mi East 5.8 mph - N/A Snow Light Snow
10:35 AM 35.6 °F 29.9 °F 33.6 °F 92% 30.25 in 5.0 mi ENE 6.9 mph - N/A Rain Light Rain
10:55 AM 36.7 °F 29.9 °F 34.9 °F 93% 30.22 in 10.0 mi East 9.2 mph - N/A Rain Light Rain
11:15 AM 36.7 °F 29.4 °F 33.8 °F 89% 30.21 in 10.0 mi East 10.4 mph 19.6 mph N/A   Overcast
11:35 AM 38.3 °F 30.5 °F 34.5 °F 86% 30.20 in 10.0 mi East 12.7 mph - N/A   Overcast
11:55 AM 39.0 °F 31.4 °F 33.6 °F 81% 30.17 in 10.0 mi East 12.7 mph 19.6 mph N/A   Overcast
12:15 PM 39.0 °F 30.3 °F 32.7 °F 78% 30.14 in 10.0 mi East 16.1 mph - N/A   Overcast
12:35 PM 38.3 °F 29.7 °F 33.8 °F 84% 30.13 in 10.0 mi ESE 15.0 mph - N/A   Overcast
12:55 PM 38.1 °F 29.8 °F 32.9 °F 81% 30.13 in 10.0 mi East 13.8 mph 19.6 mph N/A   Overcast
1:15 PM 37.8 °F 29.8 °F 32.5 °F 81% 30.12 in 10.0 mi East 12.7 mph 21.9 mph N/A   Light Drizzle
1:35 PM 38.3 °F 30.1 °F 32.4 °F 79% 30.10 in 10.0 mi ESE 13.8 mph 19.6 mph N/A   Overcast
2:15 PM 37.4 °F 30.8 °F 33.8 °F 87% 30.10 in 10.0 mi ESE 9.2 mph - N/A Rain Light Rain
2:55 PM 36.7 °F 28.9 °F 33.8 °F 89% 30.09 in 10.0 mi East 11.5 mph - N/A   Overcast
3:15 PM 36.7 °F 28.9 °F 33.8 °F 89% 30.08 in 10.0 mi East 11.5 mph - N/A Rain Light Rain
3:35 PM 36.5 °F 28.7 °F 33.3 °F 88% 30.07 in 10.0 mi East 11.5 mph 20.7 mph N/A Rain Light Rain
3:55 PM 35.8 °F 26.9 °F 33.3 °F 91% 30.07 in 10.0 mi East 13.8 mph 18.4 mph N/A   Overcast
4:15 PM 35.4 °F 26.0 °F 32.7 °F 90% 30.06 in 7.0 mi East 15.0 mph 23.0 mph N/A Rain Light Rain
4:35 PM 35.2 °F 26.2 °F 32.9 °F 91% 30.06 in 10.0 mi East 13.8 mph - N/A Rain Light Rain
4:55 PM 35.1 °F 24.1 °F 32.2 °F 89% 30.04 in 10.0 mi East 19.6 mph 24.2 mph N/A Rain Light Rain
5:15 PM 35.2 °F 25.4 °F 32.5 °F 90% 30.03 in 10.0 mi East 16.1 mph 26.5 mph N/A Rain Light Rain
5:35 PM 35.1 °F 25.2 °F 32.9 °F 92% 30.03 in 10.0 mi East 16.1 mph 21.9 mph N/A Snow Light Snow
5:55 PM 35.1 °F 24.5 °F 32.4 °F 90% 30.02 in 10.0 mi East 18.4 mph 24.2 mph N/A   Overcast
6:15 PM 35.1 °F 25.9 °F 32.9 °F 92% 30.01 in 10.0 mi East 13.8 mph 18.4 mph N/A   Overcast
6:35 PM 34.9 °F 23.6 °F 32.0 °F 89% 30.02 in 10.0 mi East 20.7 mph 28.8 mph N/A   Overcast
6:55 PM 34.5 °F 24.1 °F 32.0 °F 90% 30.02 in 10.0 mi East 17.3 mph 27.6 mph N/A Rain Light Rain
7:15 PM 34.3 °F 22.9 °F 31.5 °F 89% 30.01 in 10.0 mi ESE 20.7 mph 32.2 mph N/A   Overcast
7:35 PM 34.2 °F 23.3 °F 31.5 °F 90% 30.00 in 10.0 mi East 18.4 mph 24.2 mph N/A   Overcast
7:55 PM 34.2 °F 24.4 °F 31.1 °F 89% 30.01 in 10.0 mi East 15.0 mph 24.2 mph N/A   Overcast
8:15 PM 34.2 °F 24.8 °F 30.2 °F 85% 30.01 in 10.0 mi East 13.8 mph 23.0 mph N/A   Overcast
8:35 PM 34.2 °F 23.6 °F 29.3 °F 82% 30.00 in 10.0 mi East 17.3 mph 24.2 mph N/A   Light Drizzle
8:55 PM 33.8 °F 24.8 °F 29.5 °F 84% 30.00 in 10.0 mi East 12.7 mph 18.4 mph N/A Rain Light Rain
9:15 PM 33.6 °F 24.1 °F 29.1 °F 84% 30.00 in 10.0 mi East 13.8 mph - N/A   Overcast
9:35 PM 33.3 °F 23.7 °F 28.9 °F 84% 29.99 in 10.0 mi East 13.8 mph 21.9 mph N/A Rain Light Rain
9:55 PM 33.4 °F 23.1 °F 28.6 °F 82% 29.98 in 10.0 mi East 16.1 mph 23.0 mph N/A   Overcast
10:15 PM 33.6 °F 23.7 °F 28.0 °F 80% 29.98 in 10.0 mi East 15.0 mph 23.0 mph N/A   Overcast
10:35 PM 33.8 °F 23.9 °F 28.0 °F 79% 29.97 in 10.0 mi East 15.0 mph 23.0 mph N/A   Overcast
10:55 PM 33.4 °F 22.7 °F 28.2 °F 81% 29.95 in 10.0 mi East 17.3 mph 25.3 mph N/A   Overcast
11:15 PM 33.3 °F 21.2 °F 28.0 °F 81% 29.94 in 10.0 mi East 21.9 mph 27.6 mph N/A   Overcast
11:35 PM 33.4 °F 22.7 °F 28.0 °F 81% 29.94 in 10.0 mi East 17.3 mph 23.0 mph N/A   Overcast
11:55 PM 33.4 °F 23.1 °F 28.2 °F 81% 29.93 in 10.0 mi East 16.1 mph 25.3 mph N/A   Drizzle